User: anonymous   Login
Location: Zagreb
(45.8000°N, 16.0000°E)
Time: 14:44:18
(UTC+02:00)
Language:

ISS - Orbit

View from above orbital plane
View from above orbital plane
View from above satellite
View from above satellite

Ground track
Ground track

The orbit data is extracted from the following two-line orbital elements,

1 25544U 98067A   21289.26329861  .00014445  00000-0  27245-3 0  9990
2 25544  51.6450 104.0646 0004217 118.4903 235.9297 15.48721829307356
Epoch (UTC): 16 October 2021 06:19:09
Eccentricity: 0.0004217
inclination: 51.6450°
perigee height: 417 km
apogee height: 423 km
right ascension of ascending node: 104.0646°
argument of perigee: 118.4903°
revolutions per day: 15.48721829
mean anomaly at epoch: 235.9297°
orbit number at epoch: 30735

The dashed part of the orbit path shows where the satellite is in the earth's shadow,  

DLR